Tracking 33446 objects as of 10-Mar-2026
HD Live streaming from Space Station
objects crossing your sky now

STARLINK-35450

Track STARLINK-35450 now!
10-day predictions
STARLINK-35450 is classified as:


NORAD ID: 65868
Int'l Code: 2025-223Q
Perigee: 481.7 km
Apogee: 483.0 km
Inclination: 53.2 °
Period: 94.1 minutes
Semi major axis: 6853 km
RCS: Unknown
Launch date: October 3, 2025
Source: United States (US)
Launch site: AIR FORCE WESTERN TEST RANGE (AFWTR)
Your satellite tracking list
Your tracking list is empty




NASA's NSSDC Master Catalog

Two Line Element Set (TLE):
1 65868U 25223Q   26069.01848053  .00019651  00000-0  67387-3 0  9995
2 65868  53.1600 292.8137 0001000  96.6690 263.4425 15.30198477 24253
Source of the keplerian elements: AFSPC